Mojave, CA

8:51 AM PDT on July 21, 2017 (GMT -0700)
Mojave

Weather History for KMHV - December, 2013

Change the Weather History Date:

Thursday, December 26, 2013

  Actual Average Record
Temperature  
Mean Temperature 46 °F -  
Max Temperature 60 °F 56 °F 75 °F (1980)
Min Temperature 32 °F 31 °F 19 °F (1987)
Degree Days  
Heating Degree Days 19    
Moisture  
Dew Point 11 °F    
Average Humidity 29    
Maximum Humidity 41    
Minimum Humidity 12    
Precipitation  
Precipitation 0.00 in - - ()
Sea Level Pressure  
Sea Level Pressure 30.32 in    
Wind  
Wind Speed 7 mph (North)    
Max Wind Speed 10 mph    
Max Gust Speed -    
Visibility 10 miles    
Events      
Averages and records for this station are not official NWS values.
T = Trace of Precipitation, MM = Missing Value Source: NWS Daily Summary

Daily Weather History Graph

Daily Weather History Graph

Search for Another Location

Airport or City:

Trip Planner

Search our weather history database for the weather conditions in past years. The results will help you decide how hot, cold, wet, or windy it might be!

Date:

Astronomy

Dec. 26, 2013 Rise Set
Actual Time 6:59 AM PST 4:47 PM PST
Civil Twilight 6:31 AM PST 5:15 PM PST
Nautical Twilight 5:59 AM PST 5:47 PM PST
Astronomical Twilight 5:28 AM PST 6:18 PM PST
Moon 12:42 AM PST (12/26) 12:17 PM PST (12/26)
Length of Visible Light 10h 44m
Length of Day
9h 48m
Last Quarter, 37% of the Moon is Illuminated
Dec 26
Last Quarter
Jan 1
New
Jan 7
First Quarter
Jan 15
Full
Jan 23
Last Quarter

Hourly Weather History & Observations

Time (PST) Temp. Windchill Dew Point Humidity Pressure Visibility Wind Dir Wind Speed Gust Speed Precip Events Conditions
12:15 AM 37.4 °F 30.3 °F 14.0 °F 38% 30.33 in 10.0 mi NW 10.4 mph - N/A   Clear
12:35 AM 37.4 °F 32.1 °F 14.0 °F 38% 30.33 in 10.0 mi NW 6.9 mph - N/A   Clear
12:55 AM 37.4 °F 32.8 °F 14.0 °F 38% 30.33 in 10.0 mi NW 5.8 mph - N/A   Clear
1:15 AM 35.6 °F 30.7 °F 12.2 °F 38% 30.32 in 10.0 mi NW 5.8 mph - N/A   Clear
1:35 AM 35.6 °F 30.7 °F 12.2 °F 38% 30.32 in 10.0 mi NW 5.8 mph - N/A   Clear
1:55 AM 35.6 °F 29.2 °F 12.2 °F 38% 30.32 in 10.0 mi NW 8.1 mph - N/A   Clear
2:15 AM 35.6 °F 29.2 °F 12.2 °F 38% 30.32 in 10.0 mi NNW 8.1 mph - N/A   Clear
2:35 AM 35.6 °F 28.0 °F 12.2 °F 38% 30.32 in 10.0 mi NW 10.4 mph - N/A   Clear
2:55 AM 35.6 °F 28.6 °F 12.2 °F 38% 30.32 in 10.0 mi NW 9.2 mph - N/A   Clear
3:15 AM 35.6 °F 29.2 °F 12.2 °F 38% 30.32 in 10.0 mi NW 8.1 mph - N/A   Clear
3:35 AM 35.6 °F 29.2 °F 12.2 °F 38% 30.32 in 10.0 mi NNW 8.1 mph - N/A   Clear
3:55 AM 35.6 °F 29.9 °F 10.4 °F 35% 30.31 in 10.0 mi NW 6.9 mph - N/A   Clear
4:15 AM 33.8 °F 28.6 °F 12.2 °F 41% 30.31 in 10.0 mi NNW 5.8 mph - N/A   Clear
4:35 AM 35.6 °F 28.6 °F 10.4 °F 35% 30.31 in 10.0 mi NNW 9.2 mph - N/A   Clear
4:55 AM 33.8 °F 28.6 °F 12.2 °F 41% 30.31 in 10.0 mi North 5.8 mph - N/A   Clear
5:15 AM 33.8 °F 28.6 °F 10.4 °F 38% 30.31 in 10.0 mi North 5.8 mph - N/A   Clear
5:35 AM 35.6 °F 30.7 °F 10.4 °F 35% 30.31 in 10.0 mi NW 5.8 mph - N/A   Clear
5:55 AM 33.8 °F 28.6 °F 10.4 °F 38% 30.32 in 10.0 mi NW 5.8 mph - N/A   Clear
6:15 AM 32.0 °F 28.7 °F 10.4 °F 41% 30.32 in 10.0 mi NW 3.5 mph - N/A   Clear
6:35 AM 32.0 °F 26.4 °F 10.4 °F 41% 30.32 in 10.0 mi NNW 5.8 mph - N/A   Clear
6:55 AM 32.0 °F 26.4 °F 10.4 °F 41% 30.32 in 10.0 mi NW 5.8 mph - N/A   Clear
7:15 AM 35.6 °F 29.9 °F 10.4 °F 35% 30.33 in 10.0 mi NNW 6.9 mph - N/A   Clear
7:35 AM 35.6 °F 31.7 °F 10.4 °F 35% 30.33 in 10.0 mi North 4.6 mph - N/A   Clear
7:55 AM 39.2 °F 35.9 °F 12.2 °F 33% 30.34 in 7.0 mi North 4.6 mph - N/A   Clear
8:15 AM 44.6 °F - 14.0 °F 29% 30.34 in 10.0 mi Calm Calm - N/A   Clear
8:35 AM 48.2 °F - 15.8 °F 27% 30.35 in 10.0 mi Calm Calm - N/A   Clear
8:55 AM 53.6 °F - 15.8 °F 22% 30.35 in 10.0 mi Calm Calm - N/A   Clear
9:15 AM 53.6 °F - 14.0 °F 21% 30.36 in 10.0 mi NNE 3.5 mph - N/A   Clear
9:35 AM 53.6 °F - 10.4 °F 18% 30.36 in 10.0 mi East 5.8 mph - N/A   Clear
9:55 AM 53.6 °F - 12.2 °F 19% 30.37 in 10.0 mi East 5.8 mph - N/A   Clear
10:15 AM 55.4 °F - 10.4 °F 17% 30.37 in 10.0 mi ENE 5.8 mph - N/A   Clear
10:35 AM 55.4 °F - 8.6 °F 15% 30.36 in 10.0 mi NE 5.8 mph - N/A   Clear
10:55 AM 57.2 °F - 8.6 °F 14% 30.35 in 10.0 mi NNE 6.9 mph - N/A   Clear
11:15 AM 57.2 °F - 8.6 °F 14% 30.34 in 10.0 mi NE 5.8 mph - N/A   Clear
11:35 AM 59.0 °F - 8.6 °F 14% 30.33 in 10.0 mi ENE 6.9 mph - N/A   Clear
11:55 AM 59.0 °F - 8.6 °F 14% 30.32 in 10.0 mi East 6.9 mph - N/A   Clear
12:15 PM 59.0 °F - 8.6 °F 14% 30.31 in 10.0 mi NE 6.9 mph - N/A   Clear
12:35 PM 59.0 °F - 6.8 °F 13% 30.30 in 10.0 mi East 8.1 mph - N/A   Clear
12:55 PM 59.0 °F - 6.8 °F 13% 30.29 in 10.0 mi ENE 5.8 mph - N/A   Clear
1:15 PM 60.8 °F - 6.8 °F 12% 30.29 in 10.0 mi ENE 6.9 mph - N/A   Clear
1:35 PM 60.8 °F - 6.8 °F 12% 30.28 in 10.0 mi NE 3.5 mph - N/A   Clear
1:40 PM 60.8 °F - 8.6 °F 13% 30.28 in 10.0 mi NNE 5.8 mph - N/A   Clear